Tracking 29892 objects as of 21-Nov-2024
HD Live streaming from Space Station
objects crossing your sky now

STARLINK-5088

Track STARLINK-5088 now!
10-day predictions
STARLINK-5088 is classified as:


NORAD ID: 54000
Int'l Code: 2022-125AN
Perigee: 545.8 km
Apogee: 547.9 km
Inclination: 53.2 °
Period: 95.4 minutes
Semi major axis: 6917 km
RCS: Unknown
Launch date: October 5, 2022
Source: United States (US)
Launch site: AIR FORCE WESTERN TEST RANGE (AFWTR)
Your satellite tracking list
Your tracking list is empty




NASA's NSSDC Master Catalog

Two Line Element Set (TLE):
1 54000U 22125AN  24325.56597854  .00000831  00000-0  70304-4 0  9996
2 54000  53.2162 172.7279 0001481  86.3065 273.8096 15.08842624118091
Source of the keplerian elements: AFSPC